User: anonymous   Login
Location: NJAA Observatory
(40.6819°N, 74.8979°W)
Time: 00:45:17
(UTC-04:00)
Language:

Landsat 5 - Orbit

View from above orbital plane
View from above orbital plane
View from above satellite
View from above satellite

Ground track
Ground track

The orbit data is extracted from the following two-line orbital elements,

1 14780U 84021A   16209.37802595  .00000432  00000-0  46241-4 0  9992
2 14780  98.0262 309.4600 0092101 157.9115 202.6112 14.91191435727461
Epoch (UTC): 27 July 2016 09:04:21
Eccentricity: 0.0092101
inclination: 98.0262°
perigee height: 530 km
apogee height: 658 km
right ascension of ascending node: 309.4600°
argument of perigee: 157.9115°
revolutions per day: 14.91191435
mean anomaly at epoch: 202.6112°
orbit number at epoch: 72746

The dashed part of the orbit path shows where the satellite is in the earth's shadow,  

DLR